Location: Diemtigen
(46.6493°N, 7.5648°E)
Time: 09:26:07
(UTC+00:00)

Daily predictions for brighter satellites

Satellite Brightness Start Highest point End
(mag) Time Altitude Azimuth Time Altitude Azimuth Time Altitude Azimuth
Meteor 2-4 Rocket 3.6 19:42:01 10° S 19:47:18 67° E 19:52:39 10° NNE
EXPRESS MD2 3.8 19:47:13 10° SSW 19:49:45 30° SE 19:53:50 10° ENE
STARLINK-1125 3.7 19:45:46 10° WNW 19:49:55 75° SSW 19:54:02 10° SE
Cosmos 1833 Rocket 2.9 19:47:29 10° NNW 19:53:05 72° WSW 19:58:40 10° SSE
Cosmos 2297 4.5 19:48:54 10° SSE 19:53:50 32° ESE 19:58:50 10° NE
Cosmos 1943 Rocket 3.8 19:51:47 10° SE 19:54:36 14° E 19:57:26 10° ENE
STARLINK-1109 3.8 19:50:45 10° WNW 19:54:53 69° SW 19:58:59 10° SE
STARLINK-1123 4.4 19:53:00 10° WNW 19:57:02 48° NNE 20:01:04 10° E
STARLINK-1246 3.7 19:53:33 10° WSW 19:57:42 88° NNW 20:01:52 10° ENE
IGS 5A 4.4 19:56:00 10° SE 19:59:45 34° ENE 20:03:32 10° N
Cosmos 2082 Rocket 2.3 19:54:01 10° NNW 19:59:47 83° ENE 20:05:29 10° SSE
STARLINK-1091 3.8 19:55:43 10° WNW 19:59:49 64° SW 20:03:55 10° SE
Cosmos 1420 Rocket 4.1 19:54:57 10° SSW 20:00:09 87° WNW 20:05:23 10° NNE
Cosmos 1452 Rocket 3.5 19:55:12 10° S 20:00:26 67° ESE 20:05:42 10° NNE
Cosmos 332 Rocket 4.0 19:56:00 10° S 20:00:45 52° ESE 20:05:31 10° NNE
BREEZE-M DEB 3.7 19:59:15 10° S 20:00:51 16° SE 20:03:04 10° E
DMSP B5D2-2 4.4 19:55:36 10° N 20:00:54 74° WNW 20:06:09 10° SSW
STARLINK-1097 4.3 19:58:01 10° WNW 20:02:04 50° NNE 20:06:07 10° E
STARLINK-1224 3.7 19:58:31 10° WSW 20:02:40 83° NNW 20:06:50 10° ENE
Intercosmos 24 3.8 19:59:13 10° N 20:02:45 61° E 20:06:33 10° SSE
Landsat 7 4.5 19:58:18 10° SE 20:02:45 41° ENE 20:07:13 10° N
STARLINK-1072 3.9 20:00:44 10° WNW 20:04:49 59° SW 20:08:52 10° SE
MOS 1 Rocket 4.3 20:02:21 10° N 20:06:33 46° WNW 20:10:38 10° SW
Cosmos 1461 3.1 20:03:03 10° SSW 20:07:01 48° ESE 20:11:12 10° NE
STARLINK-1099 4.3 20:02:59 10° WNW 20:07:03 53° NNE 20:11:07 10° E
STARLINK-1225 3.8 20:03:31 10° WSW 20:07:39 78° NNW 20:11:50 10° ENE
Okean 3 3.6 20:05:01 10° S 20:09:19 81° W 20:13:39 10° N
STARLINK-1096 4.0 20:05:44 10° WNW 20:09:47 55° SW 20:13:39 11° SE
Cosmos 2369 Rocket 3.9 20:07:42 10° SE 20:10:31 14° E 20:13:19 10° ENE
SAR-Lupe-2 4.3 20:08:11 10° NNE 20:11:30 33° E 20:14:46 10° SSE
STARLINK-1104 4.2 20:07:57 10° WNW 20:12:02 55° NNE 20:16:07 10° E
STARLINK-1230 3.9 20:08:30 10° WSW 20:12:38 73° NNW 20:16:48 10° ENE
NOSS 2-2 (C) 4.2 20:10:25 10° S 20:13:22 25° ESE 20:16:30 10° ENE
STARLINK-1079 4.1 20:10:43 10° WNW 20:14:45 50° SW 20:18:26 12° SE
STARLINK-1144 4.1 20:12:56 10° WNW 20:17:02 58° NNE 20:21:08 10° ESE
Cosmos 2221 Rocket 3.9 20:12:41 10° SSW 20:17:12 74° W 20:21:47 10° N
ATLAS 2AS CENTAUR R/B 4.5 20:13:18 10° SE 20:17:26 15° ESE 20:21:34 10° ENE
SL-4 R/B 3.1 20:14:56 10° WNW 20:17:28 24° WSW 20:19:50 10° S
STARLINK-1243 4.0 20:13:30 10° WSW 20:17:38 69° NNW 20:21:47 10° ENE
SPOT 5 4.0 20:14:18 10° SE 20:18:56 35° ENE 20:23:44 10° N
STARLINK-1116 4.2 20:15:43 10° WNW 20:19:42 46° SW 20:23:13 13° SSE
NOSS 8 (F) 4.1 20:17:22 10° SW 20:20:38 84° SE 20:23:40 10° NE
Meteor 1-13 Rocket 4.2 20:15:12 10° S 20:20:49 84° E 20:26:37 10° NNE
STARLINK-1103 4.0 20:17:54 10° WNW 20:22:02 61° NNE 20:26:08 10° ESE
STARLINK-1236 4.1 20:18:29 10° WSW 20:22:37 65° NNW 20:26:45 10° ENE
ERS-1 Rocket 3.6 20:19:40 12° SE 20:24:04 41° ENE 20:28:47 10° N
STARLINK-1101 3.9 20:22:53 10° WNW 20:27:01 65° NNE 20:31:00 11° ESE
Cosmos 1066 Rocket 4.3 20:23:19 10° S 20:28:31 51° E 20:33:41 10° NNE
STARLINK-1094 4.4 20:25:44 10° WNW 20:29:37 39° SW 20:32:47 14° SSE
USA 245 2.3 20:27:55 14° SSE 20:30:26 77° ENE 20:32:59 10° N
USA 238 DEB 4.4 20:24:26 10° NW 20:31:27 54° NE 20:38:25 11° ESE
USA 238 4.4 20:24:33 10° NW 20:31:33 53° NE 20:38:32 11° ESE
STARLINK-1102 3.8 20:27:52 10° WNW 20:32:01 69° NNE 20:35:48 12° ESE
STARLINK-1269 4.3 20:28:30 10° WSW 20:32:36 58° NNW 20:36:43 10° ENE
Cosmos 2278 Rocket 3.6 20:28:04 10° SW 20:33:28 44° NW 20:38:54 10° NNE
TSX-5 4.3 20:27:54 10° SSW 20:33:37 80° ESE 20:37:59 10° NNE
Resurs 01 Rocket 2.8 20:29:46 10° S 20:33:59 41° W 20:38:13 10° NNW
Okean 1 Rocket 3.3 20:29:54 10° N 20:34:19 58° ENE 20:37:54 15° SSE
Cosmos 1805 4.2 20:30:57 10° N 20:34:33 34° ENE 20:37:07 16° SE
Cosmos 1741 Rocket 4.2 20:29:44 10° NNW 20:34:57 73° WSW 20:39:48 12° SSE
Okean 2 Rocket 4.1 20:30:45 10° NNW 20:34:58 44° W 20:39:08 10° SSW
Nadezhda 4 Rocket 4.1 20:29:01 10° SSE 20:34:59 56° E 20:40:56 10° NNE
GPS 2-04 Rocket1 4.4 20:33:22 10° SW 20:35:15 14° S 20:35:57 13° S
STARLINK-1111 3.8 20:32:50 10° WNW 20:37:00 73° NNE 20:40:34 14° ESE
STARLINK-1200 4.4 20:33:30 10° W 20:37:35 55° NNW 20:41:40 10° ENE
MetOp-B 4.4 20:32:27 10° S 20:37:46 69° WSW 20:43:08 10° NNW
STARLINK-1073 3.7 20:37:49 10° WNW 20:41:59 78° NNE 20:45:22 15° ESE
SL-8 R/B 3.7 20:37:11 10° WNW 20:42:01 84° SSW 20:46:17 13° ESE
Cosmos 2279 Rocket 4.5 20:36:53 10° NNW 20:43:01 61° W 20:49:06 10° S
Cosmos 371 Rocket 4.4 20:40:37 10° SW 20:45:19 48° WNW 20:50:04 10° NNE
ATLAS 3B CENTAUR R/B 4.2 20:36:13 10° SW 20:46:33 24° S 20:50:57 16° SSE
SL-4 R/B 3.4 20:43:11 10° S 20:46:57 24° SE 20:50:47 10° E
STARLINK-1121 3.6 20:42:48 10° WNW 20:46:58 82° NNE 20:50:08 17° ESE
Cosmos 1110 Rocket 3.9 20:42:13 10° S 20:47:21 68° ESE 20:52:31 10° NNE
Terra 2.5 20:44:22 16° SE 20:47:43 41° ENE 20:52:12 10° N
Spot 2 Rocket 3.8 20:44:03 11° S 20:48:55 66° WSW 20:53:58 10° NNW
SPOT 1/Viking Rocket 3.5 20:45:17 14° SSE 20:49:46 88° WSW 20:54:58 10° NNW
Abrixas rocket 2.1 20:47:35 10° WNW 20:50:28 52° SSW 20:51:50 26° SE
CARTOSAT-1 3.7 20:47:49 18° SSE 20:50:56 64° ENE 20:55:13 10° N
NOSS 8 (H) 4.2 20:48:37 10° SW 20:51:47 77° NW 20:54:51 10° NE
STARLINK-1106 3.6 20:47:48 10° WNW 20:51:58 88° NNE 20:54:56 18° ESE
STARLINK-1112 3.6 20:52:45 10° WNW 20:56:55 87° SSW 20:59:41 20° ESE
Aureole 2 4.5 20:55:57 10° NNW 20:59:00 55° WSW 21:00:36 23° S
STARLINK-1128 3.5 20:57:43 10° WNW 21:01:53 82° SSW 21:04:28 22° SE
Cosmos 1331 Rocket 3.9 20:58:59 10° SSW 21:04:09 85° ESE 21:09:22 10° NNE
Aureole 2 Rocket 3.4 21:02:04 10° SW 21:05:02 40° WNW 21:07:52 10° N
STARLINK-1113 3.6 21:02:43 10° WNW 21:06:52 76° SSW 21:09:15 24° SE
Cosmos 1733 3.5 21:03:58 10° N 21:07:43 52° ENE 21:09:32 27° SE
Cosmos 1437 Rocket 4.3 21:06:24 10° SW 21:09:52 34° WNW 21:13:24 10° N
COSMOS 2455 4.4 21:09:45 15° ESE 21:10:47 16° ESE 21:14:11 10° ENE
STARLINK-1119 3.6 21:07:43 10° WNW 21:11:52 71° SSW 21:14:04 26° SE
Cosmos 1378 3.0 21:09:41 19° S 21:12:16 89° WSW 21:16:01 10° N
Cosmos 1302 Rocket 4.1 21:10:14 17° S 21:14:16 56° ESE 21:19:28 10° NNE
Cosmos 1271 Rocket 4.3 21:14:22 19° ESE 21:15:09 20° E 21:18:03 10° NE
USA 215 4.4 21:09:44 10° E 21:15:47 42° NNE 21:21:50 10° NW
ISS -1.2 21:15:12 10° WSW 21:16:13 11° SW 21:17:02 10° SSW
Cosmos 1242 Rocket 3.7 21:15:26 25° ESE 21:16:15 27° E 21:19:26 10° NNE
Cosmos 1544 Rocket 4.5 21:12:43 10° N 21:16:42 34° ENE 21:18:39 23° ESE
STARLINK-1114 3.6 21:12:41 10° WNW 21:16:49 66° SW 21:18:49 28° SE
MTI 4.1 21:15:15 10° NNE 21:18:17 43° E 21:18:58 36° SE
STARLINK-60 4.3 21:20:10 24° E 21:20:10 24° E 21:21:52 10° ENE
Lacrosse 5 3.9 21:15:56 10° W 21:19:09 17° WSW 21:22:07 11° SSW
Cosmos 1092 Rocket 3.9 21:15:31 16° S 21:20:28 78° E 21:26:38 10° N
NOSS 2-2 (D) 3.4 21:18:03 10° SW 21:21:37 69° NW 21:25:37 10° NE
STARLINK-1130 (DARKSAT) 3.7 21:17:41 10° WNW 21:21:47 61° SW 21:23:37 30° SSE
CENTAUR R/B 3.4 21:16:14 10° NW 21:24:08 65° NE 21:31:08 17° SE
Cosmos 1707 4.3 21:24:35 20° ESE 21:25:16 21° E 21:28:12 10° NE
STARLINK-1084 3.8 21:22:41 10° WNW 21:26:46 56° SW 21:28:24 32° SSE
ATLAS 3B R/B 3.8 21:20:55 10° NNW 21:27:08 37° NE 21:33:31 10° ESE
SL-27 R/B 2.6 21:24:40 10° NNW 21:28:15 63° ENE 21:29:28 37° SE
NOSS 3-2 (C) 4.2 21:21:56 10° NW 21:29:24 74° NE 21:35:37 20° SE
Cosmos 1766 3.6 21:26:46 10° NNW 21:30:43 63° W 21:32:47 26° S
Cosmos 1726 4.2 21:29:18 10° NNE 21:31:41 16° ENE 21:32:50 14° E
STARLINK-1098 3.9 21:27:41 10° WNW 21:31:43 52° SW 21:33:11 34° SSE
Cosmos 1867 4.4 21:29:03 10° NNW 21:34:16 43° NE 21:38:07 17° ESE
Cosmos 2195 Rocket 4.5 21:30:46 18° S 21:35:35 86° E 21:41:53 10° N
STARLINK-1123 4.0 21:32:40 10° WNW 21:36:40 48° SW 21:37:57 35° S
Cosmos 1943 Rocket 2.1 21:31:56 10° SSW 21:37:30 89° WNW 21:43:08 10° NNE
NOSS 3-4 (A) 3.9 21:36:32 26° SSE 21:39:02 37° ESE 21:44:42 10° NE
NOSS 3-4 (C) 3.9 21:36:40 26° SSE 21:39:08 37° ESE 21:44:48 10° NE
Cosmos 1428 Rocket 4.5 21:36:33 22° S 21:40:45 76° E 21:47:02 10° NNE
STARLINK-1097 4.1 21:37:42 10° WNW 21:41:39 44° SW 21:42:45 35° S
Cosmos 2082 Rocket 4.4 21:39:41 10° WNW 21:43:06 16° W 21:46:29 10° SW
SeaSat 1 3.3 21:39:12 10° NE 21:43:34 30° ESE 21:44:34 28° SE
EO 1 Del DPAF 4.1 21:40:41 10° NNE 21:44:04 31° E 21:44:29 30° ESE
STARLINK-1099 4.2 21:42:41 10° WNW 21:46:35 41° SW 21:47:31 35° S
Cosmos 1975 Rocket 3.2 21:44:36 23° SSW 21:47:16 70° W 21:51:42 10° N
STARLINK-1212 4.0 21:46:20 10° NW 21:49:20 42° NNE 21:50:47 24° ENE
STARLINK-1105 3.9 21:46:49 10° NW 21:49:48 42° NNE 21:51:13 24° ENE
STARLINK-1247 3.9 21:47:42 10° NW 21:50:41 43° NNE 21:52:06 25° ENE
Cosmos 292 Rocket 3.7 21:48:20 28° S 21:50:49 72° ESE 21:55:40 10° NNE
STARLINK-1227 3.9 21:48:11 10° NW 21:51:11 43° NNE 21:52:32 25° ENE
BREEZE-M DEB (TANK) 3.7 21:36:13 10° WSW 21:51:17 86° NNW 21:55:08 10° ENE
STARLINK-1104 4.3 21:47:42 10° WNW 21:51:32 38° SW 21:52:18 34° SSW
STARLINK-1226 3.9 21:49:02 10° NW 21:52:03 43° NNE 21:53:23 26° ENE
BREEZE-M DEB (TANK) 3.4 21:48:24 10° WNW 21:52:19 60° N 21:56:07 10° E
STARLINK-1215 3.9 21:49:56 10° NW 21:52:57 44° NNE 21:54:16 26° ENE
Cosmos 2369 Rocket 2.1 21:49:04 16° SSW 21:53:41 88° ESE 21:59:22 10° NNE
STARLINK-1217 3.8 21:51:45 10° NW 21:54:46 45° NNE 21:56:00 28° ENE
S3M 4.3 21:48:59 10° N 21:55:02 54° ENE 21:58:11 28° SE
STARLINK-1229 3.8 21:52:39 10° NW 21:55:41 45° NNE 21:56:54 29° ENE
STARLINK-1144 4.4 21:52:43 10° WNW 21:56:30 35° SW 21:57:05 33° SSW
STARLINK-1270 3.8 21:53:32 10° NW 21:56:35 46° NNE 21:57:45 29° ENE
SPOT 5 4.2 21:53:31 18° SSW 21:56:54 37° W 22:01:52 10° NNW
STARLINK-1189 3.7 21:55:20 10° NW 21:58:22 47° NNE 21:59:28 31° ENE
Aureole 3 Rocket 4.4 21:52:30 10° N 21:58:47 86° E 22:03:54 26° S
STARLINK-1188 3.7 21:56:15 10° NW 21:59:18 47° NNE 22:00:22 32° ENE
ATLAS CENTAUR R/B 2.2 21:59:36 33° ESE 21:59:36 33° ESE 22:03:20 10° NE
STARLINK-1187 3.5 21:57:20 10° NW 22:00:23 52° NNE 22:01:14 38° ENE
Cosmos 1340 Rocket 3.9 21:57:41 10° N 22:01:24 33° ENE 22:02:31 28° ESE
STARLINK-1191 3.6 21:58:41 10° NW 22:01:43 49° NNE 22:02:39 35° ENE
STARLINK-1221 3.6 21:59:39 10° NW 22:02:41 50° NNE 22:03:35 35° ENE
STARLINK-1222 3.6 22:00:29 10° NW 22:03:32 50° NNE 22:04:23 36° ENE
NOSS 7 (A) 4.5 22:04:00 75° SE 22:04:00 75° SE 22:06:55 10° NE
Cosmos 1025 Rocket 3.1 22:02:58 42° SSE 22:04:08 60° E 22:08:23 10° NNE
STARLINK-1214 3.6 22:01:23 10° NW 22:04:26 51° NNE 22:05:16 37° ENE
Cosmos 2026 Rocket 4.2 22:00:23 19° SSW 22:04:58 69° W 22:11:21 10° N
Thor Agena Rocket 3.6 21:59:44 10° NNE 22:05:01 63° ESE 22:07:12 34° S
EXPRESS MD2 4.4 22:01:30 10° W 22:05:25 68° N 22:13:37 10° ENE
ATLAS 2AS CENTAUR R/B 3.0 22:00:30 16° SSW 22:07:04 66° ESE 22:14:55 10° NE
Cosmos 1656 Rocket 3.7 22:04:50 32° S 22:07:19 60° ESE 22:12:48 10° NNE
BREEZE M DEB (TANK) 2.7 22:04:30 10° W 22:07:43 50° NNW 22:08:33 30° NE
Cosmos 1553 Rocket 3.9 22:02:16 10° N 22:08:35 89° ENE 22:11:43 32° S
BREEZE-M DEB (TANK) 3.9 21:56:37 10° WNW 22:09:49 78° SSW 22:11:56 32° SE
Cosmos 1953 2.8 22:05:56 10° N 22:09:49 47° ENE 22:10:41 40° ESE
STARLINK-1228 3.2 22:06:49 10° WNW 22:10:19 73° NNE 22:11:08 48° E
NOSS 3-2 (A) 4.4 22:03:17 10° NW 22:10:39 54° WSW 22:15:10 27° S
Cosmos 1470 2.8 22:07:03 10° NNW 22:10:55 72° W 22:11:51 48° SSW
APEX 4.2 22:06:47 17° SSW 22:11:52 89° WNW 22:17:15 10° NNE
STARLINK-1235 3.1 22:09:32 10° WNW 22:12:46 71° NNE 22:13:12 59° E
Cosmos 2292 Rocket 4.2 22:13:24 30° E 22:13:24 30° E 22:16:18 10° NNE
Cosmos 968 Rocket 3.5 22:10:27 10° NNW 22:15:36 71° WSW 22:17:31 38° S
Cosmos 1455 Rocket 4.0 22:13:41 10° NNW 22:17:44 39° W 22:19:25 27° SW
Cosmos 1655 Rocket 4.0 22:15:02 33° S 22:17:59 71° E 22:24:14 10° NNE
SL-4 R/B 3.2 22:20:18 17° NE 22:20:18 17° NE 22:21:11 10° NNE
ATLAS 5 CENTAUR R/B 1.5 22:21:46 60° SSE 22:22:03 63° SE 22:24:25 10° NE
USA 238 DEB 4.4 22:15:37 10° NW 22:22:24 44° WSW 22:25:51 28° S
USA 238 4.4 22:15:42 10° NW 22:22:30 45° WSW 22:25:58 28° S
Cosmos 1758 3.6 22:20:24 10° NNW 22:24:24 59° W 22:25:25 44° SSW
Terra 3.5 22:23:15 17° SW 22:25:36 25° W 22:29:33 10° NW
SL-4 R/B 2.3 22:21:26 10° WSW 22:26:15 87° SSE 22:31:07 10° ENE
Cosmos 2228 4.2 22:23:42 10° N 22:27:29 31° ENE 22:28:36 27° ESE
STARLINK-1234 3.0 22:27:17 10° WNW 22:30:16 71° W 22:30:16 71° W
In-Cosmos 22 4.1 22:30:05 40° SSE 22:31:50 63° E 22:37:03 10° NNE
Cosmos 1503 Rocket 4.1 22:30:28 10° NNW 22:35:45 67° WSW 22:37:35 40° S
STARLINK-1233 4.5 22:31:54 10° WNW 22:35:56 49° NNE 22:39:12 15° E
Cosmos 2266 Rocket 3.9 22:33:43 36° SSE 22:36:16 71° E 22:42:17 10° NNE
STARLINK-1209 3.4 22:33:27 10° WNW 22:36:13 56° W 22:36:13 56° W
STARLINK-1204 4.4 22:36:54 10° WNW 22:40:58 51° NNE 22:43:59 17° E
SJ 16-02 4.0 22:41:38 10° NNE 22:43:20 12° NE 22:45:01 10° ENE
STARLINK-1238 4.3 22:41:54 10° WNW 22:45:58 53° NNE 22:48:47 19° E
Cosmos 1536 Rocket 4.0 22:45:43 37° SW 22:47:07 55° WNW 22:51:26 10° N
Cosmos 1674 2.9 22:48:20 51° ESE 22:48:27 51° E 22:52:08 10° NNE
Cosmos 1271 Rocket 4.1 22:49:29 25° WSW 22:50:55 32° WNW 22:54:29 10° N
STARLINK-1201 4.2 22:46:52 10° WNW 22:50:57 56° NNE 22:53:33 21° E
Spot 4 4.4 22:53:29 38° SW 22:54:52 49° W 22:59:36 10° NNW
STARLINK-60 4.1 22:52:21 13° W 22:55:00 43° NNW 22:58:05 10° NE
Cosmos 1354 Rocket 4.4 22:49:53 10° NNW 22:55:02 52° WSW 22:56:35 39° SSW
COSMOS 2455 2.8 22:52:50 32° SSW 22:55:50 86° ESE 23:01:54 10° NNE
STARLINK-1206 4.1 22:51:52 10° WNW 22:55:58 59° NNE 22:58:21 23° E
Cosmos 883 Rocket 4.4 22:50:19 10° N 22:56:29 87° W 22:58:57 39° S
USA 215 3.3 22:52:57 16° ESE 22:58:22 81° NNE 23:04:57 10° NW
Cosmos 1707 4.1 22:59:44 26° WSW 23:00:56 31° WNW 23:04:28 10° N
STARLINK-1205 4.0 22:56:49 10° WNW 23:00:57 62° NNE 23:03:07 26° E
Cosmos 2297 Rocket 3.7 22:57:25 10° N 23:02:23 31° NE 23:07:00 12° ESE
Helios 1A 3.3 23:01:35 47° ESE 23:02:29 59° ENE 23:06:37 10° N
Lacrosse 4 Rocket 4.3 23:03:33 10° N 23:05:39 13° NE 23:07:43 10° ENE
STARLINK-1218 3.9 23:01:49 10° WNW 23:05:58 66° NNE 23:07:55 29° E
Cosmos 1174 3.8 23:06:36 53° W 23:06:59 58° NW 23:10:43 10° NNE
Cosmos 1726 2.9 23:03:36 10° NNW 23:07:05 39° W 23:07:20 38° WSW
ALOS 2 2.6 23:07:47 54° SSW 23:08:36 67° WSW 23:12:59 10° NNW
Timation 2 Rocket 4.0 23:03:40 10° NNW 23:10:02 77° ENE 23:12:55 33° SE
Cosmos 2058 Rocket 3.7 23:06:33 10° N 23:10:51 46° ENE 23:11:58 38° ESE
COSMOS 2487 3.3 23:07:37 10° NW 23:10:32 37° W 23:10:32 37° W
STARLINK-1254 3.8 23:06:47 10° WNW 23:10:57 70° NNE 23:12:41 33° ESE
STARLINK-1372 4.5 23:15:07 33° E 23:15:07 33° E 23:17:31 10° ENE
CENTAUR R/B 3.8 23:07:16 10° NW 23:14:48 41° WSW 23:18:17 30° SSW
STARLINK-1231 3.7 23:11:45 10° WNW 23:15:55 74° NNE 23:17:27 37° ESE
Meteor 2-5 Rocket 3.7 23:14:12 43° SSE 23:15:58 68° E 23:21:34 10° NNE
STARLINK-1378 4.3 23:18:28 36° E 23:18:28 36° E 23:21:02 10° ENE
Cosmos 1867 4.2 23:12:49 10° NW 23:17:50 38° WSW 23:18:45 35° SW
ATLAS 3B R/B 2.7 23:11:31 10° NW 23:18:15 66° WSW 23:21:10 36° S
SL-14 R/B 3.9 23:19:11 41° E 23:19:21 41° E 23:23:00 10° NNE
FALCON 9 DEB 3.2 23:20:07 75° NNE 23:20:07 75° NNE 23:23:24 10° ENE
STARLINK-1379 4.2 23:21:51 39° E 23:21:51 39° E 23:24:34 10° ENE
Cosmos 1606 Rocket 3.5 23:16:35 10° NNW 23:20:55 72° W 23:21:36 58° SSW
STARLINK-1232 3.6 23:16:45 10° WNW 23:20:55 79° NNE 23:22:15 42° ESE
SeaSat 1 3.4 23:16:31 10° NNE 23:21:11 44° NW 23:24:20 19° WSW
STARLINK-1329 4.1 23:23:14 41° E 23:23:14 41° E 23:26:02 10° ENE
Cosmos 2098 Rocket 4.4 23:20:08 34° SSW 23:23:38 79° W 23:31:10 10° N
STARLINK-29 3.9 23:24:02 36° WNW 23:24:52 47° NNW 23:27:59 10° NE
STARLINK-1208 3.6 23:21:42 10° WNW 23:25:52 84° NNE 23:27:00 47° ESE
STARLINK-1362 3.9 23:26:41 46° E 23:26:41 46° E 23:29:37 10° ENE
ATLAS CENTAUR R/B 2.9 23:26:14 10° NNW 23:28:18 29° NE 23:31:50 10° E
STARLINK-1373 3.8 23:30:05 51° E 23:30:05 51° E 23:33:13 10° ENE
NOSS 3-4 (A) 4.2 23:23:55 10° WSW 23:29:44 50° NW 23:35:59 10° NE
NOSS 3-4 (C) 4.2 23:24:01 10° WSW 23:29:49 50° NW 23:36:06 10° NE
RESURS DK-1 2.3 23:29:48 62° SW 23:30:27 82° WNW 23:34:36 10° NNE
STARLINK-1365 3.6 23:31:12 56° ESE 23:31:12 56° ESE 23:34:29 10° ENE
STARLINK-1271 3.5 23:26:43 10° WNW 23:30:53 89° NE 23:31:49 53° ESE
STARLINK-1390 3.6 23:33:34 56° E 23:33:34 56° E 23:36:51 10° ENE
Cosmos 1697 Rocket 4.5 23:32:47 16° ESE 23:34:21 18° E 23:38:03 10° ENE
Cosmos 2084 3.4 23:33:36 57° SW 23:34:31 87° SE 23:39:01 10° NE
Cosmos 2315 Rocket 4.3 23:28:33 10° NNW 23:34:36 57° W 23:36:59 36° SSW
STARLINK-1154 3.5 23:31:42 10° WNW 23:35:51 86° SW 23:36:35 59° SE
BREEZE-M R/B 3.6 23:31:45 23° SW 23:36:04 59° SSE 23:39:55 10° ENE
Cosmos 1626 2.1 23:36:00 69° ESE 23:36:06 69° E 23:39:49 10° NNE
ATLAS CENTAUR R/B 2.8 23:35:42 17° WSW 23:38:27 34° NW 23:42:13 10° NNE
Cosmos 2369 Rocket 4.5 23:34:24 10° W 23:38:29 20° NW 23:42:35 10° N
Okean 1-7 Rocket 3.5 23:37:39 58° S 23:38:31 82° E 23:43:05 10° N
Cosmos 2227 Rocket 3.0 23:34:02 10° NNW 23:39:32 47° ENE 23:43:29 18° ESE
STARLINK-1197 3.4 23:36:39 10° WNW 23:40:48 80° SSW 23:41:21 65° SE
Nadezhda 2 Rocket 4.4 23:39:44 39° SSW 23:42:10 81° W 23:48:20 10° N
Cosmos 1908 4.2 23:38:53 10° NNW 23:42:22 34° W 23:42:29 34° W
CZ-4 R/B 4.0 23:38:03 10° NNE 23:42:46 58° E 23:43:50 46° SSE
STARLINK-1198 3.4 23:41:38 10° WNW 23:45:47 75° SSW 23:46:07 69° SSE
Cosmos 1953 4.5 23:43:33 10° NW 23:45:47 15° W 23:46:22 14° W
Landsat 4 3.9 23:46:57 10° N 23:50:37 58° WNW 23:51:00 54° WSW
STARLINK-1199 3.4 23:46:38 10° WNW 23:50:46 70° SW 23:50:55 69° SSW
Meteor 2-21 Rocket 4.4 23:50:06 39° S 23:52:33 86° E 23:58:48 10° N
STARLINK-1210 3.5 23:51:37 10° WNW 23:55:41 65° SW 23:55:41 65° SW
